Time,TemperatureF,DewpointF,PressureIn,WindDirection,WindDirectionDegrees,WindSpeedMPH,WindSpeedGustMPH,Humidity,HourlyPrecipIn,Conditions,Clouds,dailyrainin,SolarRadiationWatts/m^2,SoftwareType,DateUTC
2013-01-14 00:05:00,10.8,4.4,30.35,WSW,255,8.0,9.0,75,0.00,,,0.00,0,Wunderground v.1.15,2013-01-14 06:05:00,
2013-01-14 00:12:00,10.6,4.2,30.35,West,273,13.0,13.0,75,0.00,,,0.00,0,Wunderground v.1.15,2013-01-14 06:12:00,
2013-01-14 00:21:00,10.4,4.0,30.36,SW,218,7.0,12.0,75,0.00,,,0.00,0,Wunderground v.1.15,2013-01-14 06:21:00,
2013-01-14 00:39:00,10.0,3.9,30.38,West,259,4.0,15.0,76,0.00,,,0.00,0,Wunderground v.1.15,2013-01-14 06:39:00,
2013-01-14 00:44:00,10.0,3.9,30.38,WSW,246,3.0,11.0,76,0.00,,,0.00,0,Wunderground v.1.15,2013-01-14 06:44:00,
2013-01-14 00:49:00,10.0,4.2,30.38,WSW,257,1.0,11.0,77,0.00,,,0.00,0,Wunderground v.1.15,2013-01-14 06:49:00,
2013-01-14 00:54:00,9.9,4.1,30.38,WSW,252,3.0,11.0,77,0.00,,,0.00,0,Wunderground v.1.15,2013-01-14 06:54:00,
2013-01-14 00:59:00,9.8,4.0,30.39,WSW,252,3.0,13.0,77,0.00,,,0.00,0,Wunderground v.1.15,2013-01-14 06:59:00,
2013-01-14 01:04:00,9.8,4.3,30.39,West,261,2.0,8.0,78,0.00,,,0.00,0,Wunderground v.1.15,2013-01-14 07:04:00,
2013-01-14 01:09:00,9.7,3.9,30.39,West,267,2.0,12.0,77,0.00,,,0.00,0,Wunderground v.1.15,2013-01-14 07:09:00,
2013-01-14 01:19:00,9.6,4.1,30.39,SW,234,1.0,12.0,78,0.00,,,0.00,0,Wunderground v.1.15,2013-01-14 07:19:00,
2013-01-14 01:26:00,9.6,4.1,30.39,WSW,246,2.0,8.0,78,0.00,,,0.00,0,Wunderground v.1.15,2013-01-14 07:26:00,
2013-01-14 01:34:00,9.5,4.3,30.40,West,265,4.0,8.0,79,0.00,,,0.00,0,Wunderground v.1.15,2013-01-14 07:34:00,
2013-01-14 01:43:00,9.5,4.0,30.41,WSW,246,3.0,10.0,78,0.00,,,0.00,0,Wunderground v.1.15,2013-01-14 07:43:00,
2013-01-14 01:52:00,9.4,4.2,30.41,WSW,248,2.0,7.0,79,0.00,,,0.00,0,Wunderground v.1.15,2013-01-14 07:52:00,
2013-01-14 01:59:00,9.4,4.2,30.42,WSW,246,4.0,11.0,79,0.00,,,0.00,0,Wunderground v.1.15,2013-01-14 07:59:00,
2013-01-14 02:06:00,9.4,4.2,30.43,WSW,244,5.0,12.0,79,0.00,,,0.00,0,Wunderground v.1.15,2013-01-14 08:06:00,
2013-01-14 02:16:00,9.2,4.3,30.43,West,275,5.0,12.0,80,0.00,,,0.00,0,Wunderground v.1.15,2013-01-14 08:16:00,
2013-01-14 02:22:00,9.2,4.3,30.44,WSW,252,7.0,12.0,80,0.00,,,0.00,0,Wunderground v.1.15,2013-01-14 08:22:00,
2013-01-14 02:27:00,9.1,4.2,30.44,WSW,246,8.0,12.0,80,0.00,,,0.00,0,Wunderground v.1.15,2013-01-14 08:27:00,
2013-01-14 02:33:00,9.1,4.2,30.45,WSW,239,7.0,12.0,80,0.00,,,0.00,0,Wunderground v.1.15,2013-01-14 08:33:00,
2013-01-14 02:40:00,8.9,4.0,30.44,SW,233,8.0,8.0,80,0.00,,,0.00,0,Wunderground v.1.15,2013-01-14 08:40:00,
2013-01-14 02:48:00,8.9,4.0,30.44,WSW,250,3.0,10.0,80,0.00,,,0.00,0,Wunderground v.1.15,2013-01-14 08:48:00,
2013-01-14 02:58:00,8.7,3.8,30.44,WSW,248,1.0,12.0,80,0.00,,,0.00,0,Wunderground v.1.15,2013-01-14 08:58:00,
2013-01-14 03:03:00,8.6,4.0,30.44,WSW,256,3.0,7.0,81,0.00,,,0.00,0,Wunderground v.1.15,2013-01-14 09:03:00,
2013-01-14 03:09:00,8.5,3.9,30.45,WSW,238,7.0,10.0,81,0.00,,,0.00,0,Wunderground v.1.15,2013-01-14 09:09:00,
2013-01-14 03:14:00,8.4,3.5,30.45,WSW,257,5.0,14.0,80,0.00,,,0.00,0,Wunderground v.1.15,2013-01-14 09:14:00,
2013-01-14 03:22:00,8.3,3.4,30.46,WNW,292,4.0,8.0,80,0.00,,,0.00,0,Wunderground v.1.15,2013-01-14 09:22:00,
2013-01-14 03:27:00,8.2,3.6,30.46,WSW,246,5.0,8.0,81,0.00,,,0.00,0,Wunderground v.1.15,2013-01-14 09:27:00,
2013-01-14 03:32:00,8.1,3.5,30.46,West,270,2.0,9.0,81,0.00,,,0.00,0,Wunderground v.1.15,2013-01-14 09:32:00,
2013-01-14 03:39:00,8.1,3.5,30.45,West,265,1.0,9.0,81,0.00,,,0.00,0,Wunderground v.1.15,2013-01-14 09:39:00,
2013-01-14 03:44:00,8.1,3.7,30.45,WSW,244,5.0,8.0,82,0.00,,,0.00,0,Wunderground v.1.15,2013-01-14 09:44:00,
2013-01-14 03:49:00,8.0,3.6,30.46,SW,232,4.0,10.0,82,0.00,,,0.00,0,Wunderground v.1.15,2013-01-14 09:49:00,
2013-01-14 03:54:00,8.0,3.6,30.46,WSW,252,6.0,12.0,82,0.00,,,0.00,0,Wunderground v.1.15,2013-01-14 09:54:00,
2013-01-14 03:59:00,8.0,3.6,30.47,West,259,6.0,12.0,82,0.00,,,0.00,0,Wunderground v.1.15,2013-01-14 09:59:00,
2013-01-14 04:04:00,7.9,3.5,30.47,West,265,6.0,10.0,82,0.00,,,0.00,0,Wunderground v.1.15,2013-01-14 10:04:00,
2013-01-14 04:09:00,7.9,3.5,30.47,WSW,244,4.0,13.0,82,0.00,,,0.00,0,Wunderground v.1.15,2013-01-14 10:09:00,
2013-01-14 04:14:00,7.8,3.2,30.47,WSW,249,7.0,15.0,81,0.00,,,0.00,0,Wunderground v.1.15,2013-01-14 10:14:00,
2013-01-14 04:19:00,7.8,3.4,30.47,West,266,2.0,15.0,82,0.00,,,0.00,0,Wunderground v.1.15,2013-01-14 10:19:00,
2013-01-14 04:24:00,7.8,3.4,30.47,WSW,254,2.0,8.0,82,0.00,,,0.00,0,Wunderground v.1.15,2013-01-14 10:24:00,
2013-01-14 04:29:00,7.9,3.5,30.47,WSW,252,0.0,10.0,82,0.00,,,0.00,0,Wunderground v.1.15,2013-01-14 10:29:00,
2013-01-14 04:34:00,7.9,3.5,30.47,WSW,250,4.0,11.0,82,0.00,,,0.00,0,Wunderground v.1.15,2013-01-14 10:34:00,
2013-01-14 04:39:00,7.8,3.4,30.47,WSW,248,3.0,12.0,82,0.00,,,0.00,0,Wunderground v.1.15,2013-01-14 10:39:00,
2013-01-14 04:44:00,7.8,3.4,30.47,WSW,257,2.0,10.0,82,0.00,,,0.00,0,Wunderground v.1.15,2013-01-14 10:44:00,
2013-01-14 04:49:00,7.8,3.4,30.47,WSW,252,7.0,11.0,82,0.00,,,0.00,0,Wunderground v.1.15,2013-01-14 10:49:00,
2013-01-14 04:54:00,7.8,3.4,30.47,WSW,246,3.0,10.0,82,0.00,,,0.00,0,Wunderground v.1.15,2013-01-14 10:54:00,
2013-01-14 04:59:00,7.8,3.4,30.48,WSW,242,2.0,11.0,82,0.00,,,0.00,0,Wunderground v.1.15,2013-01-14 10:59:00,
2013-01-14 05:04:00,7.8,3.4,30.48,SSW,213,4.0,10.0,82,0.00,,,0.00,0,Wunderground v.1.15,2013-01-14 11:04:00,
2013-01-14 05:09:00,7.8,3.4,30.48,WSW,246,2.0,13.0,82,0.00,,,0.00,0,Wunderground v.1.15,2013-01-14 11:09:00,
2013-01-14 05:14:00,7.7,3.4,30.49,WSW,252,0.0,8.0,82,0.00,,,0.00,0,Wunderground v.1.15,2013-01-14 11:14:00,
2013-01-14 05:19:00,7.7,3.4,30.49,WSW,246,2.0,8.0,82,0.00,,,0.00,0,Wunderground v.1.15,2013-01-14 11:19:00,
2013-01-14 05:24:00,7.7,3.6,30.49,WSW,251,7.0,7.0,83,0.00,,,0.00,0,Wunderground v.1.15,2013-01-14 11:24:00,
2013-01-14 05:29:00,7.6,3.3,30.50,WSW,254,2.0,8.0,82,0.00,,,0.00,0,Wunderground v.1.15,2013-01-14 11:29:00,
2013-01-14 05:34:00,7.6,3.5,30.50,WSW,240,6.0,8.0,83,0.00,,,0.00,0,Wunderground v.1.15,2013-01-14 11:34:00,
2013-01-14 05:39:00,7.6,3.5,30.50,SW,234,5.0,8.0,83,0.00,,,0.00,0,Wunderground v.1.15,2013-01-14 11:39:00,
2013-01-14 05:44:00,7.5,3.4,30.51,SW,231,4.0,7.0,83,0.00,,,0.00,0,Wunderground v.1.15,2013-01-14 11:44:00,
2013-01-14 05:49:00,7.5,3.4,30.52,SW,231,3.0,7.0,83,0.00,,,0.00,0,Wunderground v.1.15,2013-01-14 11:49:00,
2013-01-14 05:54:00,7.3,3.2,30.52,SW,231,2.0,5.0,83,0.00,,,0.00,0,Wunderground v.1.15,2013-01-14 11:54:00,
2013-01-14 05:59:00,7.2,3.1,30.52,SW,227,2.0,5.0,83,0.00,,,0.00,0,Wunderground v.1.15,2013-01-14 11:59:00,
2013-01-14 06:04:00,7.1,3.0,30.52,SW,226,3.0,4.0,83,0.00,,,0.00,0,Wunderground v.1.15,2013-01-14 12:04:00,
2013-01-14 06:09:00,7.1,3.0,30.53,SW,225,3.0,4.0,83,0.00,,,0.00,0,Wunderground v.1.15,2013-01-14 12:09:00,
2013-01-14 06:14:00,7.1,3.3,30.53,SW,223,5.0,6.0,84,0.00,,,0.00,0,Wunderground v.1.15,2013-01-14 12:14:00,
2013-01-14 06:19:00,7.1,3.3,30.54,SW,224,4.0,6.0,84,0.00,,,0.00,0,Wunderground v.1.15,2013-01-14 12:19:00,
2013-01-14 06:24:00,7.2,3.4,30.55,SW,221,3.0,7.0,84,0.00,,,0.00,0,Wunderground v.1.15,2013-01-14 12:24:00,
2013-01-14 06:29:00,7.2,3.4,30.55,SW,214,7.0,9.0,84,0.00,,,0.00,0,Wunderground v.1.15,2013-01-14 12:29:00,
2013-01-14 06:34:00,7.3,3.5,30.55,SW,219,5.0,8.0,84,0.00,,,0.00,0,Wunderground v.1.15,2013-01-14 12:34:00,
2013-01-14 06:39:00,7.3,3.5,30.56,SSW,210,9.0,9.0,84,0.00,,,0.00,0,Wunderground v.1.15,2013-01-14 12:39:00,
2013-01-14 06:44:00,7.3,3.5,30.56,SW,229,5.0,8.0,84,0.00,,,0.00,0,Wunderground v.1.15,2013-01-14 12:44:00,
2013-01-14 06:49:00,7.3,3.5,30.56,SSW,211,5.0,9.0,84,0.00,,,0.00,0,Wunderground v.1.15,2013-01-14 12:49:00,
2013-01-14 06:54:00,7.4,3.6,30.56,SSW,205,6.0,8.0,84,0.00,,,0.00,0,Wunderground v.1.15,2013-01-14 12:54:00,
2013-01-14 06:59:00,7.5,3.9,30.56,SW,217,5.0,11.0,85,0.00,,,0.00,0,Wunderground v.1.15,2013-01-14 12:59:00,
2013-01-14 07:04:00,7.6,3.8,30.57,SW,221,6.0,8.0,84,0.00,,,0.00,0,Wunderground v.1.15,2013-01-14 13:04:00,
2013-01-14 07:09:00,7.6,3.8,30.56,SW,230,6.0,8.0,84,0.00,,,0.00,0,Wunderground v.1.15,2013-01-14 13:09:00,
2013-01-14 07:14:00,7.7,3.9,30.57,SW,232,5.0,7.0,84,0.00,,,0.00,0,Wunderground v.1.15,2013-01-14 13:14:00,
2013-01-14 07:19:00,7.7,3.9,30.57,SW,231,5.0,7.0,84,0.00,,,0.00,0,Wunderground v.1.15,2013-01-14 13:19:00,
2013-01-14 07:24:00,7.7,4.1,30.57,SW,236,3.0,6.0,85,0.00,,,0.00,5,Wunderground v.1.15,2013-01-14 13:24:00,
2013-01-14 07:29:00,7.8,4.0,30.57,SW,236,5.0,6.0,84,0.00,,,0.00,7,Wunderground v.1.15,2013-01-14 13:29:00,
2013-01-14 07:34:00,7.8,4.2,30.58,SSW,213,3.0,8.0,85,0.00,,,0.00,9,Wunderground v.1.15,2013-01-14 13:34:00,
2013-01-14 07:39:00,7.8,4.0,30.58,SSW,212,2.0,8.0,84,0.00,,,0.00,12,Wunderground v.1.15,2013-01-14 13:39:00,
2013-01-14 07:44:00,7.9,4.3,30.58,SSW,211,3.0,5.0,85,0.00,,,0.00,16,Wunderground v.1.15,2013-01-14 13:44:00,
2013-01-14 07:49:00,8.1,4.5,30.58,SW,218,6.0,9.0,85,0.00,,,0.00,19,Wunderground v.1.15,2013-01-14 13:49:00,
2013-01-14 07:54:00,8.2,4.6,30.59,SW,215,7.0,8.0,85,0.00,,,0.00,25,Wunderground v.1.15,2013-01-14 13:54:00,
2013-01-14 07:59:00,8.4,4.6,30.59,SW,216,6.0,8.0,84,0.00,,,0.00,33,Wunderground v.1.15,2013-01-14 13:59:00,
2013-01-14 08:04:00,8.5,4.7,30.59,SW,229,3.0,9.0,84,0.00,,,0.00,40,Wunderground v.1.15,2013-01-14 14:04:00,
2013-01-14 08:09:00,8.7,4.9,30.59,WSW,239,6.0,11.0,84,0.00,,,0.00,53,Wunderground v.1.15,2013-01-14 14:09:00,
2013-01-14 08:14:00,9.0,5.1,30.59,SW,229,2.0,8.0,84,0.00,,,0.00,90,Wunderground v.1.15,2013-01-14 14:14:00,
2013-01-14 08:19:00,9.2,5.3,30.59,SW,233,3.0,10.0,84,0.00,,,0.00,105,Wunderground v.1.15,2013-01-14 14:19:00,
2013-01-14 08:24:00,9.4,5.3,30.59,WSW,250,10.0,10.0,83,0.00,,,0.00,120,Wunderground v.1.15,2013-01-14 14:24:00,
2013-01-14 08:29:00,9.6,5.5,30.59,WSW,238,4.0,10.0,83,0.00,,,0.00,134,Wunderground v.1.15,2013-01-14 14:29:00,
2013-01-14 08:34:00,9.8,5.7,30.59,SW,225,8.0,11.0,83,0.00,,,0.00,149,Wunderground v.1.15,2013-01-14 14:34:00,
2013-01-14 08:39:00,9.7,5.3,30.59,SW,234,7.0,11.0,82,0.00,,,0.00,163,Wunderground v.1.15,2013-01-14 14:39:00,
2013-01-14 08:44:00,9.9,5.8,30.59,SW,221,7.0,10.0,83,0.00,,,0.00,176,Wunderground v.1.15,2013-01-14 14:44:00,
2013-01-14 08:49:00,9.9,5.5,30.59,SW,230,7.0,10.0,82,0.00,,,0.00,188,Wunderground v.1.15,2013-01-14 14:49:00,
2013-01-14 08:54:00,10.0,5.6,30.59,SW,219,8.0,11.0,82,0.00,,,0.00,200,Wunderground v.1.15,2013-01-14 14:54:00,
2013-01-14 08:59:00,10.2,5.5,30.58,WSW,247,5.0,11.0,81,0.00,,,0.00,211,Wunderground v.1.15,2013-01-14 14:59:00,
2013-01-14 09:04:00,10.5,6.1,30.58,SW,227,10.0,10.0,82,0.00,,,0.00,221,Wunderground v.1.15,2013-01-14 15:04:00,
2013-01-14 09:09:00,10.7,5.7,30.58,SW,219,7.0,10.0,80,0.00,,,0.00,234,Wunderground v.1.15,2013-01-14 15:09:00,
2013-01-14 09:14:00,10.9,6.2,30.58,SW,218,8.0,10.0,81,0.00,,,0.00,244,Wunderground v.1.15,2013-01-14 15:14:00,
2013-01-14 09:19:00,11.1,6.1,30.58,SW,217,8.0,10.0,80,0.00,,,0.00,255,Wunderground v.1.15,2013-01-14 15:19:00,
2013-01-14 09:24:00,11.2,6.2,30.58,SW,224,9.0,10.0,80,0.00,,,0.00,265,Wunderground v.1.15,2013-01-14 15:24:00,
2013-01-14 09:29:00,11.4,6.2,30.58,SW,224,5.0,10.0,79,0.00,,,0.00,278,Wunderground v.1.15,2013-01-14 15:29:00,
2013-01-14 09:34:00,11.6,6.3,30.58,SW,215,8.0,11.0,79,0.00,,,0.00,287,Wunderground v.1.15,2013-01-14 15:34:00,
2013-01-14 09:39:00,11.8,6.5,30.58,SW,215,12.0,12.0,79,0.00,,,0.00,297,Wunderground v.1.15,2013-01-14 15:39:00,
2013-01-14 09:44:00,12.1,6.6,30.58,SW,219,10.0,11.0,78,0.00,,,0.00,309,Wunderground v.1.15,2013-01-14 15:44:00,
2013-01-14 09:49:00,12.3,6.5,30.58,SW,223,6.0,11.0,77,0.00,,,0.00,318,Wunderground v.1.15,2013-01-14 15:49:00,
2013-01-14 09:54:00,12.6,6.8,30.58,SW,214,6.0,9.0,77,0.00,,,0.00,329,Wunderground v.1.15,2013-01-14 15:54:00,
2013-01-14 09:59:00,12.8,6.9,30.58,SW,217,5.0,10.0,77,0.00,,,0.00,339,Wunderground v.1.15,2013-01-14 15:59:00,
2013-01-14 10:04:00,13.2,7.0,30.58,SW,223,4.0,8.0,76,0.00,,,0.00,346,Wunderground v.1.15,2013-01-14 16:04:00,
2013-01-14 10:09:00,13.4,7.2,30.58,SW,215,7.0,9.0,76,0.00,,,0.00,357,Wunderground v.1.15,2013-01-14 16:09:00,
2013-01-14 10:14:00,13.8,7.6,30.58,SW,234,6.0,8.0,76,0.00,,,0.00,366,Wunderground v.1.15,2013-01-14 16:14:00,
2013-01-14 10:19:00,14.0,7.5,30.58,SW,219,7.0,8.0,75,0.00,,,0.00,374,Wunderground v.1.15,2013-01-14 16:19:00,
2013-01-14 10:24:00,14.4,7.9,30.58,SSW,202,7.0,10.0,75,0.00,,,0.00,380,Wunderground v.1.15,2013-01-14 16:24:00,
2013-01-14 10:29:00,14.7,7.9,30.58,SSW,198,5.0,10.0,74,0.00,,,0.00,388,Wunderground v.1.15,2013-01-14 16:29:00,
2013-01-14 10:34:00,14.9,7.8,30.58,SW,219,6.0,9.0,73,0.00,,,0.00,396,Wunderground v.1.15,2013-01-14 16:34:00,
2013-01-14 10:43:00,15.2,7.8,30.57,SSW,203,6.0,10.0,72,0.00,,,0.00,408,Wunderground v.1.15,2013-01-14 16:43:00,
2013-01-14 10:48:00,15.3,7.9,30.57,SSW,207,4.0,10.0,72,0.00,,,0.00,415,Wunderground v.1.15,2013-01-14 16:48:00,
2013-01-14 10:58:00,15.7,8.0,30.57,SW,224,7.0,11.0,71,0.00,,,0.00,427,Wunderground v.1.15,2013-01-14 16:58:00,
2013-01-14 11:25:00,17.2,8.8,30.56,SW,219,7.0,9.0,69,0.00,,,0.00,448,Wunderground v.1.15,2013-01-14 17:25:00,
2013-01-14 11:30:00,17.5,9.1,30.56,SW,223,8.0,10.0,69,0.00,,,0.00,454,Wunderground v.1.15,2013-01-14 17:30:00,
2013-01-14 11:35:00,17.6,8.8,30.56,WSW,237,5.0,14.0,68,0.00,,,0.00,457,Wunderground v.1.15,2013-01-14 17:35:00,
2013-01-14 11:40:00,17.9,9.1,30.56,WSW,247,6.0,8.0,68,0.00,,,0.00,457,Wunderground v.1.15,2013-01-14 17:40:00,
2013-01-14 11:45:00,18.2,9.4,30.55,WSW,244,11.0,13.0,68,0.00,,,0.00,459,Wunderground v.1.15,2013-01-14 17:45:00,
2013-01-14 11:50:00,18.4,9.3,30.56,SSW,212,8.0,13.0,67,0.00,,,0.00,462,Wunderground v.1.15,2013-01-14 17:50:00,
2013-01-14 11:55:00,18.6,9.1,30.55,SW,234,13.0,13.0,66,0.00,,,0.00,462,Wunderground v.1.15,2013-01-14 17:55:00,
2013-01-14 12:00:00,18.7,9.2,30.56,SSW,209,10.0,10.0,66,0.00,,,0.00,466,Wunderground v.1.15,2013-01-14 18:00:00,
2013-01-14 12:05:00,19.0,9.5,30.55,SW,224,9.0,11.0,66,0.00,,,0.00,466,Wunderground v.1.15,2013-01-14 18:05:00,
2013-01-14 12:10:00,19.0,9.2,30.55,SW,227,10.0,10.0,65,0.00,,,0.00,464,Wunderground v.1.15,2013-01-14 18:10:00,
2013-01-14 12:15:00,19.5,10.0,30.55,SW,223,16.0,16.0,66,0.00,,,0.00,466,Wunderground v.1.15,2013-01-14 18:15:00,
2013-01-14 12:20:00,19.7,10.2,30.55,WSW,242,10.0,11.0,66,0.00,,,0.00,462,Wunderground v.1.15,2013-01-14 18:20:00,
2013-01-14 12:25:00,19.9,10.4,30.55,WSW,244,10.0,15.0,66,0.00,,,0.00,461,Wunderground v.1.15,2013-01-14 18:25:00,
2013-01-14 12:30:00,19.9,9.3,30.55,WSW,238,13.0,15.0,63,0.00,,,0.00,461,Wunderground v.1.15,2013-01-14 18:30:00,
2013-01-14 12:35:00,20.0,9.4,30.55,WSW,242,7.0,17.0,63,0.00,,,0.00,457,Wunderground v.1.15,2013-01-14 18:35:00,
2013-01-14 12:40:00,20.2,9.6,30.54,SW,228,8.0,15.0,63,0.00,,,0.00,455,Wunderground v.1.15,2013-01-14 18:40:00,
2013-01-14 12:45:00,20.2,9.6,30.54,WSW,242,14.0,18.0,63,0.00,,,0.00,454,Wunderground v.1.15,2013-01-14 18:45:00,
2013-01-14 12:50:00,20.4,10.5,30.53,WSW,244,12.0,14.0,65,0.00,,,0.00,450,Wunderground v.1.15,2013-01-14 18:50:00,
2013-01-14 12:55:00,20.3,10.1,30.53,SW,235,5.0,14.0,64,0.00,,,0.00,446,Wunderground v.1.15,2013-01-14 18:55:00,
2013-01-14 13:00:00,20.4,9.8,30.53,SW,226,11.0,14.0,63,0.00,,,0.00,441,Wunderground v.1.15,2013-01-14 19:00:00,
2013-01-14 13:05:00,20.4,9.8,30.53,SW,233,11.0,16.0,63,0.00,,,0.00,424,Wunderground v.1.15,2013-01-14 19:05:00,
2013-01-14 13:10:00,20.8,10.9,30.54,SW,230,7.0,11.0,65,0.00,,,0.00,432,Wunderground v.1.15,2013-01-14 19:10:00,
2013-01-14 13:15:00,21.1,10.8,30.53,WSW,247,10.0,13.0,64,0.00,,,0.00,429,Wunderground v.1.15,2013-01-14 19:15:00,
2013-01-14 13:20:00,21.1,11.2,30.53,SW,235,8.0,11.0,65,0.00,,,0.00,422,Wunderground v.1.15,2013-01-14 19:20:00,
2013-01-14 13:25:00,21.3,11.0,30.54,WSW,237,11.0,14.0,64,0.00,,,0.00,417,Wunderground v.1.15,2013-01-14 19:25:00,
2013-01-14 13:30:00,21.2,10.6,30.53,SW,235,12.0,12.0,63,0.00,,,0.00,410,Wunderground v.1.15,2013-01-14 19:30:00,
2013-01-14 13:35:00,21.2,10.6,30.53,SW,222,10.0,16.0,63,0.00,,,0.00,404,Wunderground v.1.15,2013-01-14 19:35:00,
2013-01-14 13:40:00,21.4,11.1,30.54,SW,231,4.0,9.0,64,0.00,,,0.00,396,Wunderground v.1.15,2013-01-14 19:40:00,
2013-01-14 13:45:00,21.8,11.5,30.53,WSW,240,8.0,13.0,64,0.00,,,0.00,392,Wunderground v.1.15,2013-01-14 19:45:00,
2013-01-14 13:50:00,22.4,12.4,30.53,WSW,242,6.0,6.0,65,0.00,,,0.00,387,Wunderground v.1.15,2013-01-14 19:50:00,
2013-01-14 13:55:00,22.4,11.3,30.53,SSW,204,7.0,13.0,62,0.00,,,0.00,381,Wunderground v.1.15,2013-01-14 19:55:00,
2013-01-14 14:00:00,22.3,11.2,30.53,SW,219,8.0,8.0,62,0.00,,,0.00,371,Wunderground v.1.15,2013-01-14 20:00:00,
2013-01-14 14:05:00,22.2,11.5,30.53,WSW,242,5.0,17.0,63,0.00,,,0.00,362,Wunderground v.1.15,2013-01-14 20:05:00,
2013-01-14 14:10:00,22.5,12.1,30.53,SW,221,13.0,14.0,64,0.00,,,0.00,353,Wunderground v.1.15,2013-01-14 20:10:00,
2013-01-14 14:15:00,22.4,11.7,30.53,SW,233,8.0,17.0,63,0.00,,,0.00,343,Wunderground v.1.15,2013-01-14 20:15:00,
2013-01-14 14:20:00,22.5,11.8,30.53,WSW,240,13.0,13.0,63,0.00,,,0.00,323,Wunderground v.1.15,2013-01-14 20:20:00,
2013-01-14 14:25:00,22.6,11.9,30.53,WSW,252,7.0,15.0,63,0.00,,,0.00,325,Wunderground v.1.15,2013-01-14 20:25:00,
2013-01-14 14:30:00,22.8,12.1,30.53,WSW,238,7.0,8.0,63,0.00,,,0.00,313,Wunderground v.1.15,2013-01-14 20:30:00,
2013-01-14 14:35:00,22.6,11.5,30.53,SW,233,12.0,18.0,62,0.00,,,0.00,302,Wunderground v.1.15,2013-01-14 20:35:00,
2013-01-14 14:40:00,22.5,11.4,30.54,SSW,202,10.0,10.0,62,0.00,,,0.00,290,Wunderground v.1.15,2013-01-14 20:40:00,
2013-01-14 14:45:00,22.4,11.3,30.54,West,260,11.0,15.0,62,0.00,,,0.00,283,Wunderground v.1.15,2013-01-14 20:45:00,
2013-01-14 14:50:00,22.4,11.3,30.55,SW,225,10.0,10.0,62,0.00,,,0.00,269,Wunderground v.1.15,2013-01-14 20:50:00,
2013-01-14 14:55:00,22.6,11.9,30.55,WSW,241,7.0,13.0,63,0.00,,,0.00,257,Wunderground v.1.15,2013-01-14 20:55:00,
2013-01-14 15:00:00,22.6,11.5,30.54,WSW,240,8.0,9.0,62,0.00,,,0.00,243,Wunderground v.1.15,2013-01-14 21:00:00,
2013-01-14 15:05:00,22.7,11.6,30.55,WSW,244,18.0,18.0,62,0.00,,,0.00,197,Wunderground v.1.15,2013-01-14 21:05:00,
2013-01-14 15:10:00,22.7,12.0,30.55,WSW,248,6.0,9.0,63,0.00,,,0.00,202,Wunderground v.1.15,2013-01-14 21:10:00,
2013-01-14 15:15:00,22.7,11.3,30.55,WSW,238,6.0,17.0,61,0.00,,,0.00,202,Wunderground v.1.15,2013-01-14 21:15:00,
2013-01-14 15:20:00,22.8,11.7,30.55,WSW,244,4.0,9.0,62,0.00,,,0.00,193,Wunderground v.1.15,2013-01-14 21:20:00,
2013-01-14 15:25:00,22.9,11.8,30.55,WSW,248,5.0,18.0,62,0.00,,,0.00,174,Wunderground v.1.15,2013-01-14 21:25:00,
2013-01-14 15:30:00,22.9,11.4,30.55,WSW,250,6.0,8.0,61,0.00,,,0.00,156,Wunderground v.1.15,2013-01-14 21:30:00,
2013-01-14 15:35:00,22.9,12.2,30.55,SW,227,5.0,11.0,63,0.00,,,0.00,141,Wunderground v.1.15,2013-01-14 21:35:00,
2013-01-14 15:40:00,23.0,11.9,30.55,WSW,239,8.0,8.0,62,0.00,,,0.00,123,Wunderground v.1.15,2013-01-14 21:40:00,
2013-01-14 15:45:00,22.8,11.7,30.55,SW,234,6.0,11.0,62,0.00,,,0.00,109,Wunderground v.1.15,2013-01-14 21:45:00,
2013-01-14 15:50:00,22.7,11.6,30.55,SW,232,5.0,7.0,62,0.00,,,0.00,97,Wunderground v.1.15,2013-01-14 21:50:00,
2013-01-14 15:55:00,22.8,12.1,30.55,SW,223,3.0,8.0,63,0.00,,,0.00,83,Wunderground v.1.15,2013-01-14 21:55:00,
2013-01-14 16:00:00,22.9,12.2,30.56,WSW,250,4.0,5.0,63,0.00,,,0.00,70,Wunderground v.1.15,2013-01-14 22:00:00,
2013-01-14 16:05:00,22.9,12.2,30.55,SW,219,8.0,10.0,63,0.00,,,0.00,56,Wunderground v.1.15,2013-01-14 22:05:00,
2013-01-14 16:10:00,22.8,12.1,30.55,SW,229,6.0,6.0,63,0.00,,,0.00,46,Wunderground v.1.15,2013-01-14 22:10:00,
2013-01-14 16:15:00,22.6,12.2,30.55,WSW,238,6.0,12.0,64,0.00,,,0.00,35,Wunderground v.1.15,2013-01-14 22:15:00,
2013-01-14 16:20:00,22.5,12.1,30.55,WSW,242,4.0,7.0,64,0.00,,,0.00,28,Wunderground v.1.15,2013-01-14 22:20:00,
2013-01-14 16:24:00,22.4,12.1,30.55,SW,236,7.0,11.0,64,0.00,,,0.00,23,Wunderground v.1.15,2013-01-14 22:24:00,
2013-01-14 16:29:00,22.2,12.2,30.55,SW,236,5.0,11.0,65,0.00,,,0.00,16,Wunderground v.1.15,2013-01-14 22:29:00,
2013-01-14 16:34:00,22.0,12.0,30.55,SW,229,5.0,10.0,65,0.00,,,0.00,12,Wunderground v.1.15,2013-01-14 22:34:00,
2013-01-14 16:39:00,21.6,12.0,30.55,SW,236,5.0,10.0,66,0.00,,,0.00,9,Wunderground v.1.15,2013-01-14 22:39:00,
2013-01-14 16:44:00,21.3,12.0,30.55,SW,231,3.0,6.0,67,0.00,,,0.00,5,Wunderground v.1.15,2013-01-14 22:44:00,
2013-01-14 16:49:00,20.9,12.0,30.55,SW,231,3.0,6.0,68,0.00,,,0.00,0,Wunderground v.1.15,2013-01-14 22:49:00,
2013-01-14 16:54:00,20.8,11.9,30.55,SW,231,3.0,4.0,68,0.00,,,0.00,0,Wunderground v.1.15,2013-01-14 22:54:00,
2013-01-14 16:59:00,20.6,11.7,30.55,SW,231,1.0,4.0,68,0.00,,,0.00,0,Wunderground v.1.15,2013-01-14 22:59:00,
2013-01-14 17:05:00,20.6,11.7,30.55,SW,231,1.0,2.0,68,0.00,,,0.00,0,Wunderground v.1.15,2013-01-14 23:05:00,
2013-01-14 17:10:00,20.3,12.1,30.56,SW,231,0.0,0.0,70,0.00,,,0.00,0,Wunderground v.1.15,2013-01-14 23:10:00,
2013-01-14 17:15:00,20.0,11.8,30.56,SW,231,1.0,3.0,70,0.00,,,0.00,0,Wunderground v.1.15,2013-01-14 23:15:00,
2013-01-14 17:20:00,19.8,11.9,30.55,SW,233,0.0,1.0,71,0.00,,,0.00,0,Wunderground v.1.15,2013-01-14 23:20:00,
2013-01-14 17:25:00,19.7,11.8,30.55,SW,233,3.0,3.0,71,0.00,,,0.00,0,Wunderground v.1.15,2013-01-14 23:25:00,
2013-01-14 17:30:00,19.5,11.9,30.55,SW,234,2.0,2.0,72,0.00,,,0.00,0,Wunderground v.1.15,2013-01-14 23:30:00,
2013-01-14 17:35:00,19.3,11.7,30.55,SW,233,0.0,3.0,72,0.00,,,0.00,0,Wunderground v.1.15,2013-01-14 23:35:00,
2013-01-14 17:40:00,19.1,11.9,30.55,SW,234,0.0,1.0,73,0.00,,,0.00,0,Wunderground v.1.15,2013-01-14 23:40:00,
2013-01-14 17:45:00,19.0,11.8,30.55,SW,233,0.0,1.0,73,0.00,,,0.00,0,Wunderground v.1.15,2013-01-14 23:45:00,
2013-01-14 17:50:00,18.8,11.6,30.55,SW,234,0.0,0.0,73,0.00,,,0.00,0,Wunderground v.1.15,2013-01-14 23:50:00,
2013-01-14 17:55:00,18.6,11.7,30.55,SW,234,0.0,0.0,74,0.00,,,0.00,0,Wunderground v.1.15,2013-01-14 23:55:00,
2013-01-14 18:00:00,18.4,11.8,30.55,SW,234,0.0,0.0,75,0.00,,,0.00,0,Wunderground v.1.15,2013-01-15 00:00:00,
2013-01-14 18:05:00,18.3,11.7,30.55,SW,234,0.0,3.0,75,0.00,,,0.00,0,Wunderground v.1.15,2013-01-15 00:05:00,
2013-01-14 18:10:00,18.2,11.6,30.55,SW,235,1.0,1.0,75,0.00,,,0.00,0,Wunderground v.1.15,2013-01-15 00:10:00,
2013-01-14 18:15:00,18.3,11.7,30.55,WSW,239,3.0,4.0,75,0.00,,,0.00,0,Wunderground v.1.15,2013-01-15 00:15:00,
2013-01-14 18:20:00,18.4,11.8,30.55,WSW,241,0.0,5.0,75,0.00,,,0.00,0,Wunderground v.1.15,2013-01-15 00:20:00,
2013-01-14 18:24:00,18.5,11.9,30.55,WSW,241,2.0,4.0,75,0.00,,,0.00,0,Wunderground v.1.15,2013-01-15 00:24:00,
2013-01-14 18:29:00,18.3,11.7,30.56,WSW,241,2.0,4.0,75,0.00,,,0.00,0,Wunderground v.1.15,2013-01-15 00:29:00,
2013-01-14 18:34:00,18.2,11.6,30.56,WSW,241,3.0,3.0,75,0.00,,,0.00,0,Wunderground v.1.15,2013-01-15 00:34:00,
2013-01-14 18:51:00,17.6,11.3,30.56,WSW,241,0.0,2.0,76,0.00,,,0.00,0,Wunderground v.1.15,2013-01-15 00:51:00,
2013-01-14 19:10:00,17.0,11.0,30.56,WSW,242,0.0,1.0,77,0.00,,,0.00,0,Wunderground v.1.15,2013-01-15 01:10:00,
2013-01-14 19:15:00,17.1,10.8,30.56,WSW,244,0.0,4.0,76,0.00,,,0.00,0,Wunderground v.1.15,2013-01-15 01:15:00,
2013-01-14 19:20:00,17.1,10.8,30.56,WSW,244,3.0,3.0,76,0.00,,,0.00,0,Wunderground v.1.15,2013-01-15 01:20:00,
2013-01-14 19:25:00,17.3,11.3,30.56,WSW,247,0.0,5.0,77,0.00,,,0.00,0,Wunderground v.1.15,2013-01-15 01:25:00,
2013-01-14 19:30:00,17.7,11.4,30.56,WSW,248,3.0,5.0,76,0.00,,,0.00,0,Wunderground v.1.15,2013-01-15 01:30:00,
2013-01-14 19:35:00,17.9,11.3,30.56,WSW,248,3.0,6.0,75,0.00,,,0.00,0,Wunderground v.1.15,2013-01-15 01:35:00,
2013-01-14 19:40:00,17.9,11.0,30.56,WSW,248,2.0,4.0,74,0.00,,,0.00,0,Wunderground v.1.15,2013-01-15 01:40:00,
2013-01-14 19:45:00,17.8,11.2,30.56,WSW,248,0.0,4.0,75,0.00,,,0.00,0,Wunderground v.1.15,2013-01-15 01:45:00,
2013-01-14 19:50:00,17.7,11.1,30.55,WSW,248,0.0,1.0,75,0.00,,,0.00,0,Wunderground v.1.15,2013-01-15 01:50:00,
2013-01-14 19:55:00,17.7,11.1,30.55,WSW,249,2.0,4.0,75,0.00,,,0.00,0,Wunderground v.1.15,2013-01-15 01:55:00,
2013-01-14 20:00:00,17.5,10.9,30.56,WSW,249,0.0,1.0,75,0.00,,,0.00,0,Wunderground v.1.15,2013-01-15 02:00:00,
2013-01-14 20:05:00,17.3,11.0,30.56,WSW,249,0.0,1.0,76,0.00,,,0.00,0,Wunderground v.1.15,2013-01-15 02:05:00,
2013-01-14 20:10:00,17.1,10.8,30.55,WSW,249,0.0,0.0,76,0.00,,,0.00,0,Wunderground v.1.15,2013-01-15 02:10:00,
2013-01-14 20:15:00,17.0,11.0,30.55,WSW,249,0.0,1.0,77,0.00,,,0.00,0,Wunderground v.1.15,2013-01-15 02:15:00,
2013-01-14 20:20:00,16.8,10.8,30.55,WSW,249,0.0,0.0,77,0.00,,,0.00,0,Wunderground v.1.15,2013-01-15 02:20:00,
2013-01-14 20:25:00,16.7,10.7,30.55,WSW,249,0.0,2.0,77,0.00,,,0.00,0,Wunderground v.1.15,2013-01-15 02:25:00,
2013-01-14 20:30:00,16.5,10.5,30.55,WSW,249,0.0,0.0,77,0.00,,,0.00,0,Wunderground v.1.15,2013-01-15 02:30:00,
2013-01-14 20:35:00,16.4,10.4,30.55,WSW,249,0.0,0.0,77,0.00,,,0.00,0,Wunderground v.1.15,2013-01-15 02:35:00,
2013-01-14 20:40:00,16.2,10.3,30.55,WSW,249,0.0,0.0,77,0.00,,,0.00,0,Wunderground v.1.15,2013-01-15 02:40:00,
2013-01-14 20:45:00,16.1,10.2,30.55,WSW,249,0.0,0.0,77,0.00,,,0.00,0,Wunderground v.1.15,2013-01-15 02:45:00,
2013-01-14 20:50:00,16.1,10.2,30.55,WSW,249,0.0,0.0,77,0.00,,,0.00,0,Wunderground v.1.15,2013-01-15 02:50:00,
2013-01-14 20:55:00,15.9,10.0,30.55,WSW,249,0.0,1.0,77,0.00,,,0.00,0,Wunderground v.1.15,2013-01-15 02:55:00,
2013-01-14 21:00:00,15.8,9.9,30.55,WSW,249,0.0,0.0,77,0.00,,,0.00,0,Wunderground v.1.15,2013-01-15 03:00:00,
2013-01-14 21:05:00,15.7,10.1,30.55,WSW,249,0.0,0.0,78,0.00,,,0.00,0,Wunderground v.1.15,2013-01-15 03:05:00,
2013-01-14 21:10:00,15.4,9.8,30.55,WSW,249,0.0,0.0,78,0.00,,,0.00,0,Wunderground v.1.15,2013-01-15 03:10:00,
2013-01-14 21:15:00,15.2,9.9,30.55,WSW,249,0.0,0.0,79,0.00,,,0.00,0,Wunderground v.1.15,2013-01-15 03:15:00,
2013-01-14 21:20:00,15.0,9.7,30.55,WSW,249,0.0,0.0,79,0.00,,,0.00,0,Wunderground v.1.15,2013-01-15 03:20:00,
2013-01-14 21:25:00,14.7,9.4,30.54,WSW,249,0.0,0.0,79,0.00,,,0.00,0,Wunderground v.1.15,2013-01-15 03:25:00,
2013-01-14 21:30:00,14.3,9.3,30.55,WSW,249,0.0,0.0,80,0.00,,,0.00,0,Wunderground v.1.15,2013-01-15 03:30:00,
2013-01-14 21:35:00,14.0,9.0,30.55,WSW,249,0.0,0.0,80,0.00,,,0.00,0,Wunderground v.1.15,2013-01-15 03:35:00,
2013-01-14 21:40:00,13.8,9.0,30.55,WSW,249,0.0,0.0,81,0.00,,,0.00,0,Wunderground v.1.15,2013-01-15 03:40:00,
2013-01-14 21:45:00,13.7,9.0,30.55,WSW,249,0.0,0.0,81,0.00,,,0.00,0,Wunderground v.1.15,2013-01-15 03:45:00,
2013-01-14 21:50:00,13.5,8.8,30.55,WSW,249,0.0,0.0,81,0.00,,,0.00,0,Wunderground v.1.15,2013-01-15 03:50:00,
2013-01-14 21:55:00,13.3,8.8,30.55,WSW,249,0.0,1.0,82,0.00,,,0.00,0,Wunderground v.1.15,2013-01-15 03:55:00,
2013-01-14 21:59:00,13.3,8.8,30.54,WSW,249,0.0,1.0,82,0.00,,,0.00,0,Wunderground v.1.15,2013-01-15 03:59:00,
2013-01-14 22:04:00,13.2,8.7,30.54,WSW,249,0.0,3.0,82,0.00,,,0.00,0,Wunderground v.1.15,2013-01-15 04:04:00,
2013-01-14 22:09:00,13.1,8.9,30.54,WSW,249,0.0,3.0,83,0.00,,,0.00,0,Wunderground v.1.15,2013-01-15 04:09:00,
2013-01-14 22:14:00,13.1,8.9,30.55,WSW,249,0.0,1.0,83,0.00,,,0.00,0,Wunderground v.1.15,2013-01-15 04:14:00,
2013-01-14 22:19:00,13.1,8.9,30.55,WSW,249,0.0,1.0,83,0.00,,,0.00,0,Wunderground v.1.15,2013-01-15 04:19:00,
2013-01-14 22:24:00,13.1,8.9,30.55,WSW,249,0.0,1.0,83,0.00,,,0.00,0,Wunderground v.1.15,2013-01-15 04:24:00,
2013-01-14 22:29:00,13.0,8.5,30.54,WSW,249,0.0,1.0,82,0.00,,,0.00,0,Wunderground v.1.15,2013-01-15 04:29:00,
2013-01-14 22:34:00,12.9,9.0,30.54,WSW,249,0.0,0.0,84,0.00,,,0.00,0,Wunderground v.1.15,2013-01-15 04:34:00,
2013-01-14 22:39:00,12.9,11.0,30.54,WSW,249,0.0,1.0,92,0.00,,,0.00,0,Wunderground v.1.15,2013-01-15 04:39:00,
2013-01-14 22:44:00,13.0,9.1,30.54,WSW,249,0.0,1.0,84,0.00,,,0.00,0,Wunderground v.1.15,2013-01-15 04:44:00,
2013-01-14 22:49:00,13.1,9.2,30.54,WSW,249,0.0,2.0,84,0.00,,,0.00,0,Wunderground v.1.15,2013-01-15 04:49:00,
2013-01-14 22:54:00,13.3,9.4,30.54,WSW,249,1.0,2.0,84,0.00,,,0.00,0,Wunderground v.1.15,2013-01-15 04:54:00,
2013-01-14 22:59:00,13.4,9.5,30.54,WSW,249,0.0,2.0,84,0.00,,,0.00,0,Wunderground v.1.15,2013-01-15 04:59:00,
2013-01-14 23:00:00,13.5,9.6,30.54,WSW,249,0.0,0.0,84,0.00,,,0.00,0,Wunderground v.1.15,2013-01-15 05:00:00,
2013-01-14 23:01:00,13.5,9.6,30.54,WSW,249,0.0,1.0,84,0.00,,,0.00,0,Wunderground v.1.15,2013-01-15 05:01:00,
2013-01-14 23:06:00,13.6,9.7,30.54,WSW,249,0.0,2.0,84,0.00,,,0.00,0,Wunderground v.1.15,2013-01-15 05:06:00,
2013-01-14 23:11:00,13.7,9.8,30.54,WSW,249,0.0,2.0,84,0.00,,,0.00,0,Wunderground v.1.15,2013-01-15 05:11:00,
2013-01-14 23:16:00,13.8,9.6,30.54,WSW,249,0.0,2.0,83,0.00,,,0.00,0,Wunderground v.1.15,2013-01-15 05:16:00,
2013-01-14 23:21:00,13.8,9.6,30.54,WSW,249,1.0,1.0,83,0.00,,,0.00,0,Wunderground v.1.15,2013-01-15 05:21:00,
2013-01-14 23:26:00,13.8,9.6,30.54,WSW,249,0.0,2.0,83,0.00,,,0.00,0,Wunderground v.1.15,2013-01-15 05:26:00,
2013-01-14 23:31:00,13.7,9.5,30.55,WSW,249,0.0,1.0,83,0.00,,,0.00,0,Wunderground v.1.15,2013-01-15 05:31:00,
2013-01-14 23:36:00,13.5,9.3,30.55,WSW,249,1.0,2.0,83,0.00,,,0.00,0,Wunderground v.1.15,2013-01-15 05:36:00,
2013-01-14 23:41:00,13.0,8.5,30.55,WSW,249,1.0,2.0,82,0.00,,,0.00,0,Wunderground v.1.15,2013-01-15 05:41:00,
2013-01-14 23:47:00,13.2,9.5,30.55,WSW,250,4.0,4.0,85,0.00,,,0.00,0,Wunderground v.1.15,2013-01-15 05:47:00,
2013-01-14 23:52:00,13.6,9.9,30.55,WSW,256,3.0,5.0,85,0.00,,,0.00,0,Wunderground v.1.15,2013-01-15 05:52:00,
2013-01-14 23:57:00,13.9,9.7,30.56,West,277,5.0,6.0,83,0.00,,,0.00,0,Wunderground v.1.15,2013-01-15 05:57:00,